星链-34494 (STARLINK-34494)

导读

STARLINK-34494是美国星链计划的卫星,于2025年6月25日发射升空,归属于SpaceX公司打造的星链星座系统。星链项目旨在构建全球卫星互联网组网,该卫星承担着为全球不同区域,尤其是偏远地区提供高速宽带互联网接入服务的任务,进一步扩充了低轨卫星通信网络的覆盖与服务能力,推动全球互联网络的全域覆盖进程。

Basic Information
目录编号:
64611
目录名称:
STARLINK-34494
国际标识:
2025-137T
轨道中心:
EARTH
卫星名称:
星链-34494
卫星全名:
星链-34494 (STARLINK-34494)
卫星状态:
在轨 (已飞行436 天)
发射日期:
2025-06-25 UTC
国别 :
美国 (US)
星等 :
--
Orbit Information
数据来源 国际轨道数据
星历时间: 2026-09-03T12:19:55+0800
1天前
查看轨道信息
半长轴: 6840.846km
偏心率: 0.0001258
轨道倾角: 53.156°
近地点辐角 77.347°
升交点赤经 228.390°
平近点角 282.768°
近地点: 461.848km
远地点: 463.57km
周期: 93.848分钟
每日圈数: 15.343981
Detailed Information
固有亮度:
5
最大亮度:
2.5
卫星平台:
Starlink V1.0
覆盖范围:
全球
运营商:
太空探索技术公司
运营商所在国:
美国
制造商(研发单位):
太空探索技术公司
制造商所在国:
美国
使用方式:
暂无
Satellite Introduction
Starlink 计划是 SpaceX 推出的全球卫星互联网项目,通过发射低轨道卫星,为全球尤其是偏远地区提供高速、低延迟的互联网服务。自 2019 年起,Starlink 已部署数千颗卫星,旨在缩小全球数字鸿沟,推动互联网普及。该项目还为军事、航空等行业提供通信支持,带来广泛经济效益。
2D Orbit Map
3D Orbit Map
Orbit Altitude Analysis Chart
Orbit Inclination Analysis Chart
Orbit Comprehensive Analysis Chart
View Comprehensive Chart
Conjunction Data List
Event ID Objects TCA Miss Dist (km) Collision Risk Probability Collision Risk Index (CRI) Action
CDM_260905-020905-477906-461121
2026-09-05T
02:09:25+0000
0.683 km
远距离
5.701166E-5 中风险 0.7
CDM_260901-043705-469006-461123
OBJECT J (54690)
2026-09-01T
04:37:47+0000
1.917 km
极远距离
3.192972E-6 低风险 0.45
CDM_260905-003505-477906-461121
2026-09-05T
00:35:37+0000
1.696 km
极远距离
2.840843E-6 低风险 0.44